Escanaba, MI

8:03 PM EDT on August 25, 2016 (GMT -0400)
Delta County

Weather History for KESC - October, 2011

Change the Weather History Date:

Tuesday, October 11, 2011

  Actual Average Record
Temperature  
Mean Temperature 58 °F -  
Max Temperature 68 °F 55 °F 69 °F (1949)
Min Temperature 48 °F 40 °F 23 °F (1996)
Degree Days  
Heating Degree Days 7    
Growing Degree Days 8 (Base 50)    
Moisture  
Dew Point 53 °F    
Average Humidity 75    
Maximum Humidity 88    
Minimum Humidity 64    
Precipitation  
Precipitation 0.00 in - - ()
Sea Level Pressure  
Sea Level Pressure 30.00 in    
Wind  
Wind Speed 5 mph (SSE)    
Max Wind Speed 10 mph    
Max Gust Speed -    
Visibility 10 miles    
Events      
Averages and records for this station are not official NWS values.
T = Trace of Precipitation, MM = Missing Value Source: NWS Daily Summary

Daily Weather History Graph

Daily Weather History Graph

Search for Another Location

Airport or City:

Trip Planner

Search our weather history database for the weather conditions in past years. The results will help you decide how hot, cold, wet, or windy it might be!

Date:

Astronomy

Oct. 11, 2011 Rise Set
Actual Time 7:59 AM EDT 7:10 PM EDT
Civil Twilight 7:29 AM EDT 7:40 PM EDT
Nautical Twilight 6:55 AM EDT 8:14 PM EDT
Astronomical Twilight 6:20 AM EDT 8:48 PM EDT
Moon 6:38 PM EDT (10/11) 7:38 AM EDT (10/11)
Length of Visible Light 12h 10m
Length of Day
11h 11m
Full, 100% of the Moon is Illuminated
Oct 11
Full
Oct 11
Full
Oct 19
Last Quarter
Oct 26
New
Nov 2
First Quarter

Hourly Weather History & Observations

Time (EDT) Temp. Dew Point Humidity Pressure Visibility Wind Dir Wind Speed Gust Speed Precip Events Conditions
12:15 AM 59.0 °F 50.0 °F 72% 30.05 in 10.0 mi SSE 8.1 mph - N/A   Clear
12:35 AM 59.0 °F 50.0 °F 72% 30.05 in 10.0 mi SSE 6.9 mph - N/A   Clear
12:55 AM 59.0 °F 50.0 °F 72% 30.05 in 10.0 mi SSE 8.1 mph - N/A   Clear
1:35 AM 59.0 °F 51.8 °F 77% 30.04 in 10.0 mi SSE 8.1 mph - N/A   Clear
1:55 AM 59.0 °F 51.8 °F 77% 30.04 in 10.0 mi South 5.8 mph - N/A   Clear
2:15 AM 59.0 °F 51.8 °F 77% 30.04 in 10.0 mi SSE 3.5 mph - N/A   Clear
2:35 AM 57.2 °F 51.8 °F 82% 30.04 in 10.0 mi Calm Calm - N/A   Clear
2:55 AM 57.2 °F 51.8 °F 82% 30.04 in 10.0 mi South 3.5 mph - N/A   Clear
3:15 AM 57.2 °F 51.8 °F 82% 30.04 in 10.0 mi SSE 3.5 mph - N/A   Clear
3:35 AM 57.2 °F 51.8 °F 82% 30.04 in 10.0 mi South 4.6 mph - N/A   Clear
3:55 AM 57.2 °F 51.8 °F 82% 30.03 in 10.0 mi Calm Calm - N/A   Clear
4:35 AM 57.2 °F 51.8 °F 82% 30.03 in 10.0 mi Calm Calm - N/A   Clear
4:55 AM 57.2 °F 51.8 °F 82% 30.03 in 10.0 mi Calm Calm - N/A   Clear
5:15 AM 55.4 °F 50.0 °F 82% 30.03 in 10.0 mi SSE 3.5 mph - N/A   Clear
5:35 AM 57.2 °F 51.8 °F 82% 30.03 in 10.0 mi South 3.5 mph - N/A   Clear
5:55 AM 57.2 °F 51.8 °F 82% 30.03 in 10.0 mi SE 3.5 mph - N/A   Clear
6:15 AM 53.6 °F 48.2 °F 82% 30.03 in 8.0 mi Calm Calm - N/A   Clear
6:35 AM 48.2 °F 44.6 °F 87% 30.03 in 7.0 mi Calm Calm - N/A   Clear
6:55 AM 51.8 °F 46.4 °F 82% 30.04 in 7.0 mi Calm Calm - N/A   Clear
7:15 AM 53.6 °F 48.2 °F 82% 30.04 in 10.0 mi Calm Calm - N/A   Partly Cloudy
7:35 AM 55.4 °F 51.8 °F 88% 30.04 in 10.0 mi Calm Calm - N/A   Mostly Cloudy
7:55 AM 55.4 °F 51.8 °F 88% 30.04 in 10.0 mi SE 3.5 mph - N/A   Partly Cloudy
8:15 AM 55.4 °F 50.0 °F 82% 30.03 in 10.0 mi Calm Calm - N/A   Clear
8:35 AM 55.4 °F 51.8 °F 88% 30.03 in 10.0 mi Calm Calm - N/A   Clear
8:55 AM 57.2 °F 53.6 °F 88% 30.03 in 10.0 mi SSE 3.5 mph - N/A   Partly Cloudy
9:15 AM 60.8 °F 53.6 °F 77% 30.03 in 10.0 mi SSE 5.8 mph - N/A   Mostly Cloudy
9:35 AM 60.8 °F 53.6 °F 77% 30.03 in 10.0 mi SSE 5.8 mph - N/A   Overcast
9:55 AM 60.8 °F 53.6 °F 77% 30.02 in 10.0 mi SSE 6.9 mph - N/A   Mostly Cloudy
10:15 AM 60.8 °F 53.6 °F 77% 30.02 in 10.0 mi SSE 8.1 mph - N/A   Scattered Clouds
10:55 AM 60.8 °F 53.6 °F 77% 30.01 in 10.0 mi SSE 10.4 mph - N/A   Clear
11:15 AM 62.6 °F 53.6 °F 72% 30.01 in 10.0 mi SSE 9.2 mph - N/A   Clear
11:35 AM 62.6 °F 53.6 °F 72% 30.00 in 10.0 mi SSE 8.1 mph - N/A   Clear
11:55 AM 64.4 °F 53.6 °F 68% 30.01 in 10.0 mi SSW 9.2 mph - N/A   Clear
12:15 PM 64.4 °F 53.6 °F 68% 30.00 in 10.0 mi SSW 8.1 mph - N/A   Clear
12:35 PM 66.2 °F 53.6 °F 64% 30.00 in 10.0 mi SSW 4.6 mph - N/A   Clear
12:55 PM 68.0 °F 55.4 °F 64% 29.99 in 10.0 mi SSE 5.8 mph - N/A   Clear
1:15 PM 68.0 °F 55.4 °F 64% 29.99 in 10.0 mi SSE 8.1 mph - N/A   Clear
1:35 PM 66.2 °F 55.4 °F 68% 29.99 in 10.0 mi SSE 10.4 mph - N/A   Clear
1:55 PM 64.4 °F 55.4 °F 73% 29.98 in 10.0 mi SSE 9.2 mph - N/A   Clear
2:15 PM 64.4 °F 55.4 °F 73% 29.98 in 10.0 mi SSE 8.1 mph - N/A   Clear
2:35 PM 64.4 °F 53.6 °F 68% 29.97 in 10.0 mi South 9.2 mph - N/A   Clear
2:55 PM 66.2 °F 55.4 °F 68% 29.97 in 10.0 mi SSE 9.2 mph - N/A   Clear
3:15 PM 66.2 °F 55.4 °F 68% 29.96 in 10.0 mi South 6.9 mph - N/A   Clear
3:35 PM 66.2 °F 53.6 °F 64% 29.96 in 10.0 mi SSE 6.9 mph - N/A   Clear
4:15 PM 66.2 °F 55.4 °F 68% 29.95 in 10.0 mi SSE 8.1 mph - N/A   Clear
4:35 PM 66.2 °F 53.6 °F 64% 29.95 in 10.0 mi SSE 9.2 mph - N/A   Clear
4:55 PM 66.2 °F 53.6 °F 64% 29.94 in 10.0 mi SSE 8.1 mph - N/A   Clear
5:15 PM 66.2 °F 53.6 °F 64% 29.94 in 10.0 mi SSE 9.2 mph - N/A   Clear
5:35 PM 64.4 °F 53.6 °F 68% 29.93 in 10.0 mi SSE 8.1 mph - N/A   Clear
5:55 PM 64.4 °F 53.6 °F 68% 29.93 in 10.0 mi South 9.2 mph - N/A   Partly Cloudy
6:15 PM 64.4 °F 53.6 °F 68% 29.93 in 10.0 mi SSE 5.8 mph - N/A   Partly Cloudy
6:55 PM 62.6 °F 53.6 °F 72% 29.92 in 10.0 mi South 6.9 mph - N/A   Clear
7:15 PM 62.6 °F 53.6 °F 72% 29.93 in 10.0 mi South 5.8 mph - N/A   Clear
7:35 PM 62.6 °F 53.6 °F 72% 29.93 in 10.0 mi South 6.9 mph - N/A   Clear
7:55 PM 62.6 °F 53.6 °F 72% 29.93 in 10.0 mi SSW 4.6 mph - N/A   Clear
8:15 PM 62.6 °F 53.6 °F 72% 29.94 in 10.0 mi SSW 4.6 mph - N/A   Partly Cloudy
8:35 PM 62.6 °F 53.6 °F 72% 29.94 in 10.0 mi Calm Calm - N/A   Clear
8:55 PM 60.8 °F 53.6 °F 77% 29.94 in 10.0 mi SSW 3.5 mph - N/A   Clear
9:15 PM 60.8 °F 53.6 °F 77% 29.94 in 10.0 mi SSE 3.5 mph - N/A   Partly Cloudy
9:35 PM 60.8 °F 53.6 °F 77% 29.95 in 10.0 mi SSE 5.8 mph - N/A   Mostly Cloudy
9:55 PM 60.8 °F 53.6 °F 77% 29.95 in 10.0 mi SE 4.6 mph - N/A   Mostly Cloudy
10:15 PM 59.0 °F 53.6 °F 82% 29.95 in 10.0 mi ESE 5.8 mph - N/A   Partly Cloudy
10:35 PM 57.2 °F 53.6 °F 88% 29.94 in 7.0 mi ESE 5.8 mph - N/A   Clear
10:55 PM 57.2 °F 53.6 °F 88% 29.94 in 7.0 mi SE 6.9 mph - N/A   Scattered Clouds
11:15 PM 57.2 °F 53.6 °F 88% 29.93 in 10.0 mi SE 4.6 mph - N/A   Mostly Cloudy
11:35 PM 57.2 °F 53.6 °F 88% 29.93 in 8.0 mi ESE 6.9 mph - N/A   Partly Cloudy
11:55 PM 57.2 °F 53.6 °F 88% 29.93 in 8.0 mi SE 3.5 mph - N/A   Clear